Weather History for Novato, CA

Change the Weather History Date:

Thursday, October 17, 2013

  Actual Average (KAPC) Record (KAPC)
Temperature  
Mean Temperature 62 °F 58 °F  
Max Temperature 82 °F 74 °F 87 °F (2008)
Min Temperature 41 °F 43 °F 37 °F (2006)
Degree Days  
Heating Degree Days 4    
Month to date heating degree days  
Since 1 July heating degree days  
Cooling Degree Days 0    
Month to date cooling degree days  
Year to date cooling degree days  
Growing Degree Days 12 (Base 50)    
Moisture  
Dew Point 35 °F    
Average Humidity 48    
Maximum Humidity 100    
Minimum Humidity 14    
Precipitation  
Precipitation 0.00 in - 0.92 in (1984)
Month to date precipitation  
Year to date precipitation  
Since 1 July precipitation  
Sea Level Pressure  
Sea Level Pressure 30.04 in    
Wind  
Wind Speed 2 mph (ENE)    
Max Wind Speed 9 mph    
Max Gust Speed -    
Visibility 10 miles    
Events Rain    
T = Trace of Precipitation, MM = Missing Value Source: NWS Daily Summary

Daily Weather History Graph

Daily Weather History Graph

Search for Another Location

Airport:

Trip Planner

Search our weather history database for the weather conditions in past years. The results will help you decide how hot, cold, wet, or windy it might be!

Date:

Astronomy

Oct. 17, 2013 Rise Set
Actual Time 7:21 AM PDT 6:29 PM PDT
Civil Twilight 6:54 AM PDT 6:55 PM PDT
Nautical Twilight 6:23 AM PDT 7:26 PM PDT
Astronomical Twilight 5:53 AM PDT 7:56 PM PDT
Moon 5:46 PM PDT (10/17) 6:00 AM PDT (10/17)
Length of Visible Light 12h 01m
Length of Day
11h 07m
Waxing Gibbous, 98% of the Moon is Illuminated
Oct 17
Waxing Gibbous
Oct 18
Full
Oct 26
Last Quarter
Nov 3
New
Nov 9
First Quarter

Hourly Weather History & Observations

Time (PDT) Temp. Dew Point Humidity Pressure Visibility Wind Dir Wind Speed Gust Speed Precip Events Conditions
12:15 AM 48.2 °F 32.0 °F 54% 30.06 in 10.0 mi Calm Calm - N/A   Clear
12:35 AM 50.0 °F 35.6 °F 58% 30.06 in 10.0 mi Calm Calm - N/A   Clear
12:55 AM 50.0 °F 37.4 °F 62% 30.07 in 10.0 mi Calm Calm - N/A   Clear
1:15 AM 48.2 °F 32.0 °F 54% 30.07 in 10.0 mi Calm Calm - N/A   Clear
1:35 AM 48.2 °F 32.0 °F 54% 30.08 in 10.0 mi Calm Calm - N/A   Clear
1:55 AM 50.0 °F 32.0 °F 50% 30.07 in 10.0 mi Calm Calm - N/A   Clear
2:15 AM 48.2 °F 35.6 °F 62% 30.07 in 10.0 mi Calm Calm - N/A   Clear
2:35 AM 48.2 °F 37.4 °F 66% 30.07 in 10.0 mi Calm Calm - N/A   Clear
2:55 AM 44.6 °F 32.0 °F 61% 30.07 in 10.0 mi Calm Calm - N/A   Clear
3:15 AM 46.4 °F 32.0 °F 57% 30.07 in 10.0 mi Calm Calm - N/A   Clear
3:35 AM 44.6 °F 32.0 °F 61% 30.06 in 7.0 mi North - - N/A   Clear
3:55 AM 46.4 °F 32.0 °F 57% 30.06 in 10.0 mi Calm Calm - N/A   Clear
4:15 AM 41.0 °F 32.0 °F 70% 30.06 in 10.0 mi Calm Calm - N/A   Clear
4:35 AM 41.0 °F 32.0 °F 70% 30.06 in 10.0 mi Calm Calm - N/A   Clear
4:55 AM 42.8 °F 32.0 °F 66% 30.06 in 10.0 mi Calm Calm - N/A   Clear
5:15 AM 44.6 °F 32.0 °F 61% 30.06 in 10.0 mi Calm Calm - N/A   Clear
5:35 AM 44.6 °F 32.0 °F 61% 30.07 in 10.0 mi Calm Calm - N/A   Clear
5:55 AM 44.6 °F 32.0 °F 61% 30.07 in 10.0 mi Calm Calm - N/A   Clear
6:15 AM 42.8 °F 32.0 °F 66% 30.07 in 10.0 mi Calm Calm - N/A   Clear
6:35 AM 42.8 °F 32.0 °F 66% 30.07 in 10.0 mi Calm Calm - N/A   Clear
6:55 AM 41.0 °F 32.0 °F 70% 30.07 in 10.0 mi Calm Calm - N/A   Clear
7:15 AM 42.8 °F 32.0 °F 66% 30.07 in 10.0 mi Calm Calm - N/A   Clear
7:35 AM 41.0 °F 32.0 °F 70% 30.08 in 10.0 mi Calm Calm - N/A   Clear
7:55 AM 41.0 °F 32.0 °F 70% 30.09 in 10.0 mi Calm Calm - N/A   Clear
8:15 AM 44.6 °F 32.0 °F 61% 30.09 in 10.0 mi Calm Calm - N/A   Clear
8:35 AM 46.4 °F 35.6 °F 66% 30.10 in 10.0 mi Calm Calm - N/A   Clear
8:55 AM 50.0 °F 33.8 °F 54% 30.10 in 10.0 mi Calm Calm - N/A   Clear
9:15 AM 53.6 °F 33.8 °F 47% 30.10 in 10.0 mi North 3.5 mph - N/A   Clear
9:35 AM 55.4 °F 37.4 °F 51% 30.10 in 10.0 mi NNE 3.5 mph - N/A   Clear
9:55 AM 57.2 °F 37.4 °F 48% 30.10 in 10.0 mi NNE 3.5 mph - N/A   Clear
10:15 AM 60.8 °F 37.4 °F 42% 30.10 in 10.0 mi Calm Calm - N/A   Clear
10:35 AM 64.4 °F 35.6 °F 34% 30.10 in 10.0 mi Calm Calm - N/A   Clear
10:55 AM 66.2 °F 33.8 °F 30% 30.09 in 10.0 mi Calm Calm - N/A   Clear
11:15 AM 68.0 °F 33.8 °F 28% 30.09 in 10.0 mi Calm Calm - N/A   Clear
11:35 AM 71.6 °F 32.0 °F 23% 30.08 in 10.0 mi Calm Calm - N/A   Clear
11:55 AM 73.4 °F 32.0 °F 22% 30.08 in 10.0 mi South 3.5 mph - N/A   Clear
12:15 PM 75.2 °F 32.0 °F 21% 30.07 in 10.0 mi Calm Calm - N/A   Clear
12:35 PM 75.2 °F 33.8 °F 22% 30.06 in 10.0 mi East 4.6 mph - N/A Rain Light Rain
12:55 PM 75.2 °F 35.6 °F 24% 30.05 in 10.0 mi ESE 4.6 mph - N/A   Clear
1:15 PM 77.0 °F 33.8 °F 21% 30.04 in 10.0 mi SSE 3.5 mph - N/A Rain Light Rain
1:35 PM 77.0 °F 33.8 °F 21% 30.02 in 10.0 mi ESE 4.6 mph - N/A   Clear
1:55 PM 80.6 °F 32.0 °F 17% 30.02 in 10.0 mi SE 4.6 mph - N/A   Clear
2:15 PM 80.6 °F 33.8 °F 18% 30.01 in 10.0 mi SE 5.8 mph - N/A   Clear
2:35 PM 80.6 °F 35.6 °F 20% 30.00 in 10.0 mi SE 6.9 mph - N/A   Clear
2:55 PM 80.6 °F 35.6 °F 20% 29.99 in 10.0 mi ESE 8.1 mph - N/A   Clear
3:15 PM 80.6 °F 35.6 °F 20% 29.99 in 10.0 mi SE 5.8 mph - N/A   Clear
3:35 PM 80.6 °F 35.6 °F 20% 29.98 in 10.0 mi SE 5.8 mph - N/A   Clear
3:55 PM 82.4 °F 32.0 °F 16% 29.97 in 10.0 mi SSE 6.9 mph - N/A   Clear
4:15 PM 82.4 °F 33.8 °F 17% 29.97 in 10.0 mi SSE 4.6 mph - N/A   Clear
4:35 PM 82.4 °F 35.6 °F 19% 29.97 in 10.0 mi SSE 4.6 mph - N/A   Clear
4:55 PM 82.4 °F 28.4 °F 14% 29.97 in 10.0 mi WSW 9.2 mph - N/A   Clear
5:15 PM 80.6 °F 28.4 °F 15% 29.97 in 10.0 mi NNW 3.5 mph - N/A   Clear
5:35 PM 78.8 °F 28.4 °F 16% 29.97 in 10.0 mi Calm Calm - N/A   Clear
5:55 PM 75.2 °F 32.0 °F 21% 29.97 in 10.0 mi NNE 6.9 mph - N/A   Clear
6:15 PM 71.6 °F 30.2 °F 22% 29.97 in 10.0 mi North 6.9 mph - N/A   Clear
6:35 PM 66.2 °F 32.0 °F 28% 29.97 in 10.0 mi ESE 3.5 mph - N/A   Clear
6:55 PM 68.0 °F 32.0 °F 26% 29.98 in 10.0 mi East 6.9 mph - N/A   Clear
7:15 PM 66.2 °F 28.4 °F 24% 29.98 in 10.0 mi East 5.8 mph - N/A   Clear
7:35 PM 60.8 °F 32.0 °F 34% 29.98 in 10.0 mi Calm Calm - N/A   Clear
7:55 PM 59.0 °F 32.0 °F 36% 29.98 in 10.0 mi North 3.5 mph - N/A   Clear
8:15 PM 57.2 °F 35.6 °F 44% 29.98 in 10.0 mi North 6.9 mph - N/A   Clear
8:35 PM 57.2 °F 39.2 °F 51% 29.98 in 10.0 mi North 5.8 mph - N/A   Clear
8:55 PM 53.6 °F 41.0 °F 62% 29.98 in 10.0 mi North 6.9 mph - N/A   Clear
9:15 PM 53.6 °F 44.6 °F 72% 29.99 in 10.0 mi North 6.9 mph - N/A   Clear
9:35 PM 51.8 °F 44.6 °F 76% 29.99 in 10.0 mi North 8.1 mph - N/A   Clear
9:55 PM 50.0 °F 44.6 °F 82% 30.00 in 10.0 mi North 6.9 mph - N/A   Clear
10:15 PM 50.0 °F 46.4 °F 87% 30.00 in 10.0 mi North 6.9 mph - N/A   Clear
10:35 PM 48.2 °F 46.4 °F 93% 30.00 in 10.0 mi North 3.5 mph - N/A   Clear
10:55 PM 48.2 °F 46.4 °F 93% 30.00 in 10.0 mi NNW 6.9 mph - N/A   Clear
11:15 PM 48.2 °F 46.4 °F 93% 30.00 in 10.0 mi NW 5.8 mph - N/A   Clear
11:35 PM 48.2 °F 44.6 °F 87% 30.00 in 10.0 mi NNW 5.8 mph - N/A   Unknown
11:55 PM 46.4 °F 46.4 °F 100% 30.00 in 10.0 mi Calm Calm - N/A   Unknown